Simultaneous Nadir Overpasses (SNOs) Predictions

Prediction of SNOs between GOES-16 and NOAA-20 Satellite Orbit:

Table of predicted SNOs for the next 14.0 days since TLE Epoch: 11/9/2024
Index Date Time (GOES-16) GOES-16 Lat,Lon NOAA-20 Lat,Lon Distance(km) Time Diff (sec)
1 11/10/2024 06:43:31 0.01, -75.20 0.98, -79.51 490.44 80
2 11/11/2024 06:22:06 0.01, -75.21 -0.04, -74.97 27.07 80
3 11/13/2024 18:25:15 -0.01, -75.25 -0.11, -75.75 56.34 80
4 11/14/2024 18:09:09 -0.01, -75.26 0.87, -71.20 461.78 80
5 11/16/2024 06:30:55 0.01, -75.26 0.26, -76.47 137.37 80
6 11/17/2024 06:09:29 0.01, -75.28 -0.72, -71.93 380.79 80
7 11/18/2024 18:31:24 -0.01, -75.31 -0.42, -77.24 219.85 80
8 11/19/2024 18:15:18 -0.01, -75.32 0.58, -72.70 298.81 80
9 11/21/2024 06:37:03 0.00, -75.34 0.58, -77.96 298.83 80
10 11/22/2024 06:15:36 -0.00, -75.36 -0.43, -73.42 220.34 80
